User: anonymous   Login
Location: Unspecified
(0.0000°N, 0.0000°E)
Time: 13:10:34
(UTC+00:00)
Language:

NOAA 19 - Orbit

View from above orbital plane
View from above orbital plane
View from above satellite
View from above satellite

Ground track
Ground track

The orbit data is extracted from the following two-line orbital elements,

1 33591U 09005A   21133.13238294  .00000099  00000-0  78843-4 0  9999
2 33591  99.1857 152.9591 0013175 228.6432 131.3607 14.12466644631939
Epoch (UTC): 13 May 2021 03:10:37
Eccentricity: 0.0013175
inclination: 99.1857°
perigee height: 841 km
apogee height: 860 km
right ascension of ascending node: 152.9591°
argument of perigee: 228.6432°
revolutions per day: 14.12466644
mean anomaly at epoch: 131.3607°
orbit number at epoch: 63193

The dashed part of the orbit path shows where the satellite is in the earth's shadow,  

DLR